When you browse on this site, cookies collect data to enhance your experience and personalize the content and advertising you see.
Visit our Privacy Policy to learn more. By continuing to use the site, you agree to this use of cookies and data.
  • In Czech Republic
  • List of Countries
  • For 7 days
  • Water Temperature
  • Satellite Maps
  • Weather Map
  • Weather Widgets
  • user-avatar
    Login

    Hourly Weather Chimoio

    Today, 24 January, Thursday

    Time Temperature Precipitation Wind Pressure Humidity
    00:00 +22°C° 0 mm 1 mps 699 mmHg 91%
    01:00 +22°C° 0 mm 1 mps 699 mmHg 92%
    02:00 +22°C° 0 mm 1 mps 699 mmHg 94%
    03:00 +22°C° 0 mm 1 mps 699 mmHg 94%
    04:00 +22°C° 0 mm 1 mps 699 mmHg 95%
    05:00 +21°C° 0 mm 1 mps 699 mmHg 95%
    06:00 +23°C° 0 mm 1 mps 700 mmHg 89%
    07:00 +25°C° 0 mm 1 mps 700 mmHg 84%
    08:00 +25°C° 0 mm 0 mps 701 mmHg 78%
    09:00 +28°C° 0 mm 1 mps 701 mmHg 70%
    10:00 +29°C° 0 mm 2 mps 701 mmHg 62%
    11:00 +30°C° 0 mm 2 mps 701 mmHg 54%
    12:00 +30°C° 0 mm 2 mps 701 mmHg 52%
    13:00 +30°C° 0 mm 3 mps 700 mmHg 51%
    14:00 +31°C° 0 mm 3 mps 700 mmHg 49%
    15:00 +30°C° 0 mm 2 mps 700 mmHg 55%
    16:00 +29°C° 0 mm 2 mps 699 mmHg 62%
    17:00 +29°C° 0 mm 2 mps 699 mmHg 68%
    18:00 +27°C° 0 mm 2 mps 699 mmHg 74%
    19:00 +25°C° 0 mm 1 mps 700 mmHg 80%
    20:00 +24°C° 0 mm 1 mps 700 mmHg 87%
    21:00 +23°C° 0.1 mm 1 mps 700 mmHg 89%
    22:00 +23°C° 0.1 mm 1 mps 701 mmHg 91%
    23:00 +20°C° 0.1 mm 0 mps 701 mmHg 94%

    Tomorrow, 25 January, Friday

    Time Temperature Precipitation Wind Pressure Humidity
    00:00 +22°C° 0.3 mm 1 mps 701 mmHg 95%
    01:00 +22°C° 0.3 mm 1 mps 701 mmHg 95%
    02:00 +22°C° 0.3 mm 1 mps 701 mmHg 96%
    03:00 +22°C° 0.2 mm 1 mps 701 mmHg 96%
    04:00 +21°C° 0.2 mm 1 mps 701 mmHg 97%
    05:00 +21°C° 0.2 mm 1 mps 701 mmHg 97%
    06:00 +22°C° 0.4 mm 1 mps 702 mmHg 96%
    07:00 +23°C° 0.4 mm 1 mps 702 mmHg 95%
    08:00 +23°C° 0.4 mm 1 mps 703 mmHg 94%
    09:00 +25°C° 0.4 mm 2 mps 703 mmHg 89%
    10:00 +26°C° 0.4 mm 2 mps 703 mmHg 85%
    11:00 +27°C° 0.4 mm 2 mps 703 mmHg 80%
    12:00 +28°C° 0.7 mm 3 mps 702 mmHg 77%
    13:00 +28°C° 0.7 mm 3 mps 702 mmHg 75%
    14:00 +29°C° 0.7 mm 3 mps 702 mmHg 72%
    15:00 +28°C° 0.8 mm 3 mps 701 mmHg 76%
    16:00 +28°C° 0.8 mm 2 mps 701 mmHg 79%
    17:00 +27°C° 0.8 mm 2 mps 701 mmHg 83%
    18:00 +26°C° 0.3 mm 2 mps 701 mmHg 88%
    19:00 +24°C° 0.3 mm 2 mps 701 mmHg 92%
    20:00 +23°C° 0.3 mm 1 mps 702 mmHg 97%
    21:00 +23°C° 0.3 mm 1 mps 702 mmHg 97%
    22:00 +23°C° 0.3 mm 1 mps 702 mmHg 98%
    23:00 +23°C° 0.3 mm 1 mps 703 mmHg 98%

    Day after tomorrow, 26 January, Saturday

    Time Temperature Precipitation Wind Pressure Humidity
    00:00 +23°C° 0.1 mm 1 mps 702 mmHg 98%
    01:00 +20°C° 0.1 mm 0 mps 702 mmHg 98%
    02:00 +20°C° 0.1 mm 0 mps 701 mmHg 98%
    03:00 +20°C° 0 mm 0 mps 702 mmHg 97%
    04:00 +20°C° 0 mm 0 mps 702 mmHg 97%
    05:00 +20°C° 0 mm 0 mps 702 mmHg 97%
    06:00 +21°C° 0 mm 0 mps 702 mmHg 94%
    07:00 +22°C° 0 mm 0 mps 703 mmHg 92%
    08:00 +25°C° 0 mm 1 mps 703 mmHg 89%
    09:00 +26°C° 0.1 mm 1 mps 704 mmHg 81%
    10:00 +28°C° 0.1 mm 1 mps 704 mmHg 72%
    11:00 +30°C° 0.1 mm 2 mps 704 mmHg 63%
    12:00 +30°C° 0 mm 2 mps 703 mmHg 61%
    13:00 +31°C° 0 mm 2 mps 702 mmHg 59%
    14:00 +31°C° 0 mm 2 mps 702 mmHg 56%
    15:00 +30°C° 0.3 mm 2 mps 701 mmHg 64%
    16:00 +29°C° 0.3 mm 2 mps 701 mmHg 72%
    17:00 +27°C° 0.3 mm 3 mps 701 mmHg 80%
    18:00 +26°C° 0.8 mm 2 mps 701 mmHg 86%
    19:00 +24°C° 0.8 mm 2 mps 702 mmHg 91%
    20:00 +23°C° 0.8 mm 1 mps 702 mmHg 97%
    21:00 +23°C° 0.5 mm 1 mps 703 mmHg 97%
    22:00 +23°C° 0.5 mm 1 mps 703 mmHg 98%
    23:00 +23°C° 0.5 mm 1 mps 703 mmHg 98%

    27 January, Sunday

    Time Temperature Precipitation Wind Pressure Humidity
    00:00 +23°C° 0.2 mm 1 mps 703 mmHg 98%
    01:00 +23°C° 0.2 mm 1 mps 703 mmHg 98%
    02:00 +20°C° 0.2 mm 0 mps 702 mmHg 98%
    03:00 +20°C° 0.1 mm 0 mps 702 mmHg 98%
    04:00 +22°C° 0.1 mm 1 mps 702 mmHg 98%
    05:00 +21°C° 0.1 mm 1 mps 703 mmHg 98%
    06:00 +22°C° 0.1 mm 1 mps 703 mmHg 95%
    07:00 +23°C° 0.1 mm 1 mps 703 mmHg 92%
    08:00 +24°C° 0.1 mm 1 mps 704 mmHg 89%
    09:00 +25°C° 0.4 mm 1 mps 704 mmHg 84%
    10:00 +26°C° 0.4 mm 1 mps 704 mmHg 79%
    11:00 +28°C° 0.4 mm 2 mps 703 mmHg 74%
    12:00 +28°C° 1 mm 2 mps 703 mmHg 74%
    13:00 +28°C° 1 mm 2 mps 702 mmHg 74%
    14:00 +29°C° 1 mm 3 mps 701 mmHg 74%
    15:00 +27°C° 0.7 mm 3 mps 701 mmHg 79%
    16:00 +26°C° 0.7 mm 3 mps 701 mmHg 84%
    17:00 +25°C° 0.7 mm 4 mps 701 mmHg 90%
    18:00 +24°C° 0.3 mm 3 mps 702 mmHg 92%
    19:00 +22°C° 0.3 mm 3 mps 702 mmHg 95%
    20:00 +21°C° 0.3 mm 2 mps 703 mmHg 97%
    21:00 +21°C° 0.3 mm 2 mps 703 mmHg 97%
    22:00 +22°C° 0.3 mm 1 mps 703 mmHg 98%
    23:00 +21°C° 0.3 mm 1 mps 703 mmHg 98%

    28 January, Monday

    Time Temperature Precipitation Wind Pressure Humidity
    00:00 +21°C° 0.3 mm 1 mps 703 mmHg 98%
    01:00 +21°C° 0.3 mm 1 mps 703 mmHg 98%
    02:00 +21°C° 0.3 mm 1 mps 702 mmHg 98%
    03:00 +21°C° 0.2 mm 1 mps 702 mmHg 98%
    04:00 +21°C° 0.2 mm 1 mps 702 mmHg 98%
    05:00 +21°C° 0.2 mm 1 mps 702 mmHg 98%
    06:00 +21°C° 0.2 mm 1 mps 703 mmHg 97%
    07:00 +22°C° 0.2 mm 1 mps 703 mmHg 97%
    08:00 +22°C° 0.2 mm 1 mps 704 mmHg 96%
    09:00 +24°C° 0.3 mm 1 mps 704 mmHg 90%
    10:00 +25°C° 0.3 mm 1 mps 704 mmHg 83%
    11:00 +27°C° 0.3 mm 1 mps 704 mmHg 76%
    12:00 +27°C° 1 mm 2 mps 703 mmHg 76%
    13:00 +28°C° 1 mm 2 mps 702 mmHg 76%
    14:00 +28°C° 1 mm 2 mps 701 mmHg 76%
    15:00 +27°C° 1 mm 3 mps 701 mmHg 81%
    16:00 +26°C° 1 mm 3 mps 701 mmHg 86%
    17:00 +25°C° 1 mm 3 mps 701 mmHg 91%
    18:00 +24°C° 0.3 mm 3 mps 701 mmHg 93%
    19:00 +23°C° 0.3 mm 2 mps 702 mmHg 95%
    20:00 +21°C° 0.3 mm 2 mps 703 mmHg 97%
    21:00 +21°C° 0.4 mm 2 mps 703 mmHg 98%
    22:00 +21°C° 0.4 mm 2 mps 703 mmHg 98%
    23:00 +21°C° 0.4 mm 1 mps 703 mmHg 98%

    29 January, Tuesday

    Time Temperature Precipitation Wind Pressure Humidity
    00:00 +21°C° 0.4 mm 1 mps 703 mmHg 98%
    01:00 +21°C° 0.4 mm 1 mps 703 mmHg 98%
    02:00 +21°C° 0.4 mm 1 mps 702 mmHg 98%
    03:00 +21°C° 0.1 mm 1 mps 702 mmHg 98%
    04:00 +21°C° 0.1 mm 1 mps 703 mmHg 98%
    05:00 +21°C° 0.1 mm 1 mps 703 mmHg 98%
    06:00 +21°C° 0.1 mm 1 mps 703 mmHg 97%
    07:00 +21°C° 0.1 mm 1 mps 704 mmHg 96%
    08:00 +22°C° 0.1 mm 1 mps 704 mmHg 95%
    09:00 +23°C° 0.2 mm 1 mps 704 mmHg 92%
    10:00 +23°C° 0.2 mm 1 mps 704 mmHg 89%
    11:00 +24°C° 0.2 mm 1 mps 704 mmHg 86%
    12:00 +25°C° 0.3 mm 1 mps 703 mmHg 82%
    13:00 +26°C° 0.3 mm 2 mps 702 mmHg 77%
    14:00 +28°C° 0.3 mm 2 mps 702 mmHg 73%
    15:00 +27°C° 0.4 mm 2 mps 702 mmHg 77%
    16:00 +26°C° 0.4 mm 2 mps 701 mmHg 81%
    17:00 +26°C° 0.4 mm 3 mps 701 mmHg 85%
    18:00 +24°C° 0.3 mm 2 mps 701 mmHg 89%
    19:00 +23°C° 0.3 mm 2 mps 702 mmHg 93%
    20:00 +21°C° 0.3 mm 2 mps 702 mmHg 97%
    21:00 +21°C° 0 mm 1 mps 702 mmHg 97%
    22:00 +21°C° 0 mm 1 mps 703 mmHg 97%
    23:00 +19°C° 0 mm 0 mps 703 mmHg 97%
    Show more